Lockhart, AL

11:39 AM CDT on July 27, 2016 (GMT -0500)
Florala

Weather History for K0J4 - June, 2013

Change the Weather History Date:

Friday, June 7, 2013

  Actual Average (KCEW) Record (KCEW)
Temperature  
Mean Temperature 76 °F -  
Max Temperature 84 °F 88 °F 98 °F (2008)
Min Temperature 69 °F 65 °F 55 °F (2006)
Cooling Degree Days 12    
Growing Degree Days 26 (Base 50)    
Moisture  
Dew Point 68 °F    
Average Humidity 79    
Maximum Humidity 93    
Minimum Humidity 56    
Precipitation  
Precipitation 0.00 in - - ()
Sea Level Pressure  
Sea Level Pressure 29.82 in    
Wind  
Wind Speed 1 mph (WSW)    
Max Wind Speed 6 mph    
Max Gust Speed 16 mph    
Visibility 10 miles    
Events      
Averages and records for this station are not official NWS values.
T = Trace of Precipitation, MM = Missing Value Source: NWS Daily Summary

Daily Weather History Graph

Daily Weather History Graph

Search for Another Location

Airport or City:

Trip Planner

Search our weather history database for the weather conditions in past years. The results will help you decide how hot, cold, wet, or windy it might be!

Date:

Astronomy

Jun. 07, 2013 Rise Set
Actual Time 5:41 AM CDT 7:47 PM CDT
Civil Twilight 5:13 AM CDT 8:15 PM CDT
Nautical Twilight 4:39 AM CDT 8:48 PM CDT
Astronomical Twilight 4:03 AM CDT 9:24 PM CDT
Moon 4:59 AM CDT (6/7) 7:04 PM CDT (6/7)
Length of Visible Light 15h 01m
Length of Day
14h 06m
Waning Crescent, 1% of the Moon is Illuminated
Jun 7
Waning Crescent
Jun 8
New
Jun 16
First Quarter
Jun 23
Full
Jun 29
Last Quarter

Hourly Weather History & Observations

Time (CDT) Temp. Heat Index Dew Point Humidity Pressure Visibility Wind Dir Wind Speed Gust Speed Precip Events Conditions
12:58 AM 69.1 °F - 66.9 °F 93% 29.68 in 10.0 mi Calm Calm - N/A   Clear
1:58 AM 70.0 °F - 68.0 °F 93% 29.68 in 10.0 mi Calm Calm - N/A   Clear
2:58 AM 70.0 °F - 68.0 °F 93% 29.75 in 9.0 mi Calm Calm - N/A   Clear
3:58 AM 70.0 °F - 68.0 °F 93% 29.69 in 10.0 mi Calm Calm - N/A   Clear
4:33 AM 69.8 °F - 66.2 °F 88% 29.75 in 9.0 mi Calm Calm - N/A   Partly Cloudy
4:58 AM 69.1 °F - 66.9 °F 93% 29.76 in 9.0 mi Calm Calm - N/A   Partly Cloudy
5:58 AM 69.1 °F - 66.9 °F 93% 29.78 in 8.0 mi Calm Calm - N/A   Partly Cloudy
6:20 AM 69.8 °F - 66.2 °F 88% 29.80 in 7.0 mi Calm Calm - N/A   Mostly Cloudy
6:58 AM 70.0 °F - 66.9 °F 90% 29.83 in 9.0 mi Calm Calm - N/A   Overcast
7:28 AM 71.6 °F - 68.0 °F 88% 29.86 in 10.0 mi NW 3.5 mph - N/A   Scattered Clouds
7:58 AM 73.0 °F - 68.0 °F 84% 29.89 in 10.0 mi Calm Calm - N/A   Scattered Clouds
8:58 AM 75.9 °F - 66.9 °F 74% 29.84 in 10.0 mi Calm Calm - N/A   Clear
9:58 AM 78.1 °F - 68.0 °F 71% 29.84 in 10.0 mi SW 3.5 mph - N/A   Clear
10:58 AM 79.0 °F - 68.0 °F 69% 29.85 in 10.0 mi SW 4.6 mph - N/A   Mostly Cloudy
11:58 AM 80.1 °F 82.3 °F 66.9 °F 64% 29.86 in 10.0 mi Variable 4.6 mph - N/A   Partly Cloudy
12:58 PM 82.0 °F 84.5 °F 66.9 °F 60% 29.85 in 10.0 mi SSW 5.8 mph - N/A   Clear
1:58 PM 82.0 °F 84.5 °F 66.9 °F 60% 29.84 in 10.0 mi WSW 4.6 mph - N/A   Mostly Cloudy
2:58 PM 84.0 °F 86.5 °F 66.9 °F 56% 29.81 in 10.0 mi WSW 5.8 mph - N/A   Scattered Clouds
3:58 PM 82.0 °F 84.5 °F 66.9 °F 60% 29.81 in 10.0 mi Calm Calm - N/A   Overcast
4:58 PM 82.0 °F 84.5 °F 66.9 °F 60% 29.81 in 10.0 mi Variable 5.8 mph 16.1 mph N/A   Scattered Clouds
5:58 PM 81.0 °F 83.8 °F 68.0 °F 65% 29.82 in 10.0 mi Variable 3.5 mph - N/A   Scattered Clouds
6:58 PM 80.1 °F 82.7 °F 68.0 °F 67% 29.83 in 10.0 mi Variable 3.5 mph - N/A   Clear
7:58 PM 77.0 °F - 68.0 °F 74% 29.85 in 10.0 mi Calm Calm - N/A   Clear
8:58 PM 75.0 °F - 69.1 °F 82% 29.88 in 10.0 mi Calm Calm - N/A   Partly Cloudy
9:58 PM 73.0 °F - 69.1 °F 87% 29.91 in 10.0 mi Calm Calm - N/A   Clear
10:58 PM 71.1 °F - 69.1 °F 93% 29.93 in 10.0 mi Calm Calm - N/A   Clear
11:58 PM 71.1 °F - 68.0 °F 90% 29.92 in 10.0 mi Calm Calm - N/A   Clear